This demonstration page uses our WeatherBlox Daily Observations layout. Learn more.

Left ArrowRight Arrow

38.80484, -77.04692

Hourly Observations for February 10, 2016

Temp ( °F °C ) Dew Point ( °F °C ) Humidity (%) Winds ( mph kmh ) Pressure ( in mb ) Visibility ( mi km ) Precip ( " mm )
12:52 am 00:52 Cloudy 32 0 19 -7.2 59 59 WNW 10 17 29.71 1006 10 16 0.00 0.00
1:52 am 01:52 Cloudy 31 -0.6 20 -6.7 64 64 NW 14 22 29.72 1006 10 16 0.00 0.00
2:52 am 02:52 Cloudy with Light Snow 29 -1.7 24 -4.4 82 82 W 7 11 29.72 1007 4 6 0.00 0.03
3:52 am 03:52 Cloudy 29 -1.7 23 -5 78 78 W 7 11 29.72 1007 10 16 0.00 0.03
4:52 am 04:52 Cloudy 30 -1.1 21 -6.1 69 69 W 9 15 29.73 1007 10 16 0.00 0.00
5:52 am 05:52 Cloudy 32 0 18 -7.8 56 56 NW 13 20 29.75 1008 10 16 0.00 0.00
6:52 am 06:52 Mostly Cloudy 32 0 16 -8.9 52 52 WNW 20 31 29.77 1008 10 16 0.00 0.00
7:52 am 07:52 Mostly Cloudy 32 0 16 -8.9 52 52 WNW 15 24 29.79 1009 10 16 0.00 0.00
8:52 am 08:52 Mostly Cloudy 33 0.6 15 -9.4 47 47 W 13 20 29.81 1010 10 16 0.00 0.00
9:52 am 09:52 Mostly Cloudy 33 0.6 15 -9.4 47 47 NW 17 28 29.82 1010 10 16 0.00 0.00
10:52 am 10:52 Mostly Cloudy 35 1.7 15 -9.4 44 44 WNW 17 28 29.83 1010 10 16 0.00 0.00
11:52 am 11:52 Partly Cloudy 37 2.8 16 -8.9 42 42 WNW 16 26 29.81 1009 10 16 0.00 0.00
12:52 pm 12:52 Partly Cloudy 39 3.9 18 -7.8 43 43 NW 10 17 29.79 1009 10 16 0.00 0.00
1:52 pm 13:52 Partly Cloudy 37 2.8 16 -8.9 42 42 WNW 10 17 29.78 1009 10 16 0.00 0.00
2:52 pm 14:52 Mostly Cloudy 38 3.3 16 -8.9 41 41 WNW 9 15 29.79 1009 10 16 0.00 0.00
3:52 pm 15:52 Mostly Cloudy 36 2.2 15 -9.4 42 42 NW 13 20 29.80 1009 10 16 0.00 0.00
4:52 pm 16:52 Mostly Cloudy 35 1.7 14 -10 42 42 NNW 15 24 29.82 1010 10 16 0.00 0.00
5:52 pm 17:52 Cloudy 32 0 12 -11.1 43 43 WNW 14 22 29.87 1012 10 16 0.00 0.00
6:52 pm 18:52 Cloudy 29 -1.7 10 -12.2 45 45 WNW 15 24 29.90 1013 10 16 0.00 0.00
7:52 pm 19:52 Cloudy 28 -2.2 11 -11.7 49 49 NW 13 20 29.92 1013 10 16 0.00 0.00
8:52 pm 20:52 Cloudy 27 -2.8 10 -12.2 49 49 WNW 17 28 29.93 1014 10 16 0.00 0.00
9:52 pm 21:52 Cloudy 27 -2.8 10 -12.2 49 49 WNW 15 24 29.94 1014 10 16 0.00 0.00
10:52 pm 22:52 Partly Cloudy 26 -3.3 9 -12.8 48 48 WNW 14 22 29.96 1014 10 16 0.00 0.00
11:52 pm 23:52 Mostly Clear 26 -3.3 8 -13.3 46 46 WNW 9 15 29.97 1015 10 16 0.00 0.00

Powered by AerisWeather